Regional Weather Roundup
Issued by NWS

Home | Current Version | Previous Version | Text Only | Print | Product List | Glossary Off
Versions: 1 2 3 4 5 6 7 8 9 10 11 12 13 14 15 16 17 18 19 20 21 22 23 24 25 26 27 28 29 30 31 32 33 34 35 36 37 38 39 40 41 42 43 44 45 46 47 48 49 50

000
ASUS43 KFSD 120402
RWRSD

WEATHER ROUNDUP FOR SOUTH DAKOTA
NATIONAL WEATHER SERVICE SIOUX FALLS SD
1000 PM CST THU FEB 11 2016

NOTE: "FAIR" INDICATES FEW OR NO CLOUDS BELOW 12,000 FEET WITH NO
SIGNIFICANT WEATHER AND/OR OBSTRUCTIONS TO VISIBILITY.


SDZ001>005-009-010-012>017-120500-
NORTHWEST AND NORTH CENTRAL SOUTH DAKOTA

CITY           SKY/WX    TMP DP  RH WIND       PRES   REMARKS
BUFFALO          N/A     30  25  81 N8        30.15R WCI  22
FAITH            N/A     25  21  85 N10       30.21S WCI  15
MOBRIDGE       CLOUDY    22  17  81 NE6       30.24R WCI  14
$$

SDZ012>016-024>037-041>051-057-063-072>074-120500-
SOUTHWEST AND SOUTH CENTRAL SOUTH DAKOTA

CITY           SKY/WX    TMP DP  RH WIND       PRES   REMARKS
RAPID CTY ARPT CLOUDY    32  29  88 N6        30.22R WCI  26
PIERRE         CLOUDY    27  24  89 NW7       30.23S WCI  19
CUSTER         CLOUDY    37  22  54 CALM      30.18R
ELLSWORTH AFB  CLOUDY    32  30  95 N5        30.21  WCI  27
PHILIP         CLOUDY    30  27  88 CALM      30.23S
PINE RIDGE     CLOUDY    33  27  78 N3        30.20R
WINNER         CLOUDY    28  24  85 N6        30.22R WCI  22
$$

SDZ004>011-016>023-039-040-120500-
NORTHEAST SOUTH DAKOTA

CITY           SKY/WX    TMP DP  RH WIND       PRES   REMARKS
ABERDEEN       CLOUDY    17  12  80 N8        30.28R WCI   7
WATERTOWN      CLOUDY    18  12  77 N12       30.20R WCI   5
BROOKINGS      FLURRIES  14  11  87 CALM      30.19F
SISSETON         N/A     14  10  84 N13       30.26R WCI   0
$$

SDZ017-020-022-023-036>040-048>070-120500-
SOUTHEAST SOUTH DAKOTA

CITY           SKY/WX    TMP DP  RH WIND       PRES   REMARKS
SIOUX FALLS    LGT SNOW  11   7  84 CALM      30.21S
HURON          CLOUDY    22  20  92 NW7       30.25R WCI  13
MITCHELL       CLOUDY    19  17  92 CALM      30.25R
YANKTON        CLOUDY    16  12  86 CALM      30.23S
$$

ABBREVIATIONS USED IN REMARKS
   TC - TEMPERATURE IN CELSIUS
  WCI - WIND CHILL INDEX
   HX - HEAT INDEX
  VSB - VISIBILITY




USA.gov is the U.S. government's official web portal to all federal, state and local government web resources and services.